{"data":{"norad_id":59625,"epoch":"2026-05-25T04:48:06.430752Z","epoch_age_seconds":61758,"freshness":"FRESH","line1":"1 59625U 24081A   26145.20007443  .00003409  00000+0  17834-3 0  9991","line2":"2 59625  97.5016 223.3053 0011033  89.4835 270.7662 15.16474922114052","mean_motion":15.16474922,"eccentricity":0.0011033,"inclination_deg":97.5016,"raan_deg":223.3053,"arg_perigee_deg":89.4835,"mean_anomaly_deg":270.7662,"bstar":0.00017834,"rev_number":11405,"period_min":94.95705989657,"perigee_km":508.89759472188,"apogee_km":524.11131055127,"semimajor_km":6894.6414526366,"source":"CELESTRAK","updated_at":"2026-05-25T13:38:12.836316Z"}}